| time (UTC) | temp C | wind direction | speed KPH | gust KPH | rain 1hr cm | rain 24hr cm | rain mn cm | humidity % | barometer mb |
| 20260506013703 | 15 | 0.0 | 0.0 | 0.00 | 0.00 | 0.00 | 82 | 1008.9 | |
| 20260506011702 | 15 | 0.0 | 0.0 | 0.00 | 0.00 | 0.00 | 80 | 1009.1 | |
| 20260506005700 | 15 | 0.0 | 0.0 | 0.00 | 0.00 | 0.00 | 82 | 1008.9 | |
| 20260506003659 | 15 | 0.0 | 0.0 | 0.00 | 0.00 | 0.00 | 81 | 1009.7 | |
| 20260506001658 | 15 | 0.0 | 0.0 | 0.00 | 0.00 | 0.00 | 83 | 1010.1 | |
| 20260505235657 | 15 | 0.0 | 0.0 | 0.00 | 0.00 | 0.00 | 81 | 1009.9 | |
| 20260505233655 | 15 | 0.0 | 0.0 | 0.00 | 0.00 | 0.00 | 79 | 1010.1 | |
| 20260505231654 | 15 | 0.0 | 0.0 | 0.00 | 0.00 | 0.00 | 78 | 1010.3 | |
| 20260505225653 | 15 | 0.0 | 0.0 | 0.00 | 0.00 | 0.00 | 78 | 1010.3 | |
| 20260505223651 | 15 | 0.0 | 0.0 | 0.00 | 0.00 | 0.00 | 77 | 1010.9 | |
| 20260505221650 | 16 | 0.0 | 0.0 | 0.00 | 0.00 | 0.00 | 76 | 1011.2 | |
| 20260505215648 | 15 | 0.0 | 0.0 | 0.00 | 0.00 | 0.00 | 79 | 1011.4 | |
| 20260505213647 | 15 | 0.0 | 0.0 | 0.00 | 0.00 | 0.00 | 79 | 1011.4 | |
| 20260505211645 | 16 | 0.0 | 0.0 | 0.00 | 0.00 | 0.00 | 77 | 1011.5 | |
| 20260505205644 | 16 | 0.0 | 0.0 | 0.00 | 0.00 | 0.00 | 77 | 1011.7 | |
| 20260505203643 | 16 | 0.0 | 0.0 | 0.00 | 0.00 | 0.00 | 77 | 1011.8 | |
| 20260505201641 | 16 | 0.0 | 0.0 | 0.00 | 0.00 | 0.00 | 75 | 1011.8 | |
| 20260505195640 | 16 | 0.0 | 0.0 | 0.00 | 0.00 | 0.00 | 76 | 1011.8 | |
| 20260505193639 | 16 | 0.0 | 0.0 | 0.00 | 0.00 | 0.00 | 75 | 1011.6 | |
| 20260505191637 | 16 | 0.0 | 0.0 | 0.00 | 0.00 | 0.00 | 75 | 1011.5 | |
| 20260505185636 | 16 | 0.0 | 0.0 | 0.00 | 0.00 | 0.00 | 74 | 1011.3 | |
| 20260505183635 | 17 | 0.0 | 0.0 | 0.00 | 0.00 | 0.00 | 70 | 1011.1 | |
| 20260505181633 | 17 | 0.0 | 0.0 | 0.00 | 0.00 | 0.00 | 68 | 1011.1 | |
| 20260505175632 | 17 | 0.0 | 0.0 | 0.00 | 0.00 | 0.00 | 68 | 1011.2 | |
| 20260505173631 | 17 | 0.0 | 0.0 | 0.00 | 0.00 | 0.00 | 67 | 1011.2 | |
| 20260505171630 | 18 | 0.0 | 0.0 | 0.00 | 0.00 | 0.00 | 66 | 1011.1 | |
| 20260505165628 | 18 | 0.0 | 0.0 | 0.00 | 0.00 | 0.00 | 66 | 1011.1 | |
| 20260505163627 | 18 | 0.0 | 0.0 | 0.00 | 0.00 | 0.00 | 64 | 1011.2 | |
| 20260505161626 | 18 | 0.0 | 0.0 | 0.00 | 0.00 | 0.00 | 64 | 1011.3 | |
| 20260505151622 | 18 | 0.0 | 0.0 | 0.00 | 0.00 | 0.00 | 59 | 1011.2 | |
| 20260505123611 | 18 | 0.0 | 0.0 | 0.00 | 0.00 | 0.00 | 56 | 1011.7 | |
| 20260505121610 | 18 | 0.0 | 0.0 | 0.00 | 0.00 | 0.00 | 57 | 1011.7 | |
| 20260505115608 | 18 | 0.0 | 0.0 | 0.00 | 0.00 | 0.00 | 58 | 1011.8 | |
| 20260505113607 | 18 | 0.0 | 0.0 | 0.00 | 0.00 | 0.00 | 60 | 1011.7 | |
| 20260505111606 | 18 | 0.0 | 0.0 | 0.00 | 0.00 | 0.00 | 60 | 1011.9 | |
| 20260505101602 | 17 | 0.0 | 0.0 | 0.00 | 0.00 | 0.00 | 61 | 1012.0 | |
| 20260505095601 | 17 | 0.0 | 0.0 | 0.00 | 0.00 | 0.00 | 61 | 1012.0 | |
| 20260505093559 | 18 | 0.0 | 0.0 | 0.00 | 0.00 | 0.00 | 58 | 1011.9 | |
| 20260505091558 | 17 | 0.0 | 0.0 | 0.00 | 0.00 | 0.00 | 61 | 1012.0 | |
| 20260505085557 | 16 | 0.0 | 0.0 | 0.00 | 0.00 | 0.00 | 64 | 1012.0 | |
| 20260505084028 | 15 | 0.0 | 0.0 | 0.00 | 0.00 | 0.00 | 70 | 1011.9 | |
| 20260505082026 | 15 | 0.0 | 0.0 | 0.00 | 0.00 | 0.00 | 67 | 1012.0 | |
| 20260505080025 | 15 | 0.0 | 0.0 | 0.00 | 0.00 | 0.00 | 68 | 1011.7 | |
| 20260505074024 | 15 | 0.0 | 0.0 | 0.00 | 0.00 | 0.00 | 67 | 1011.6 | |
| 20260505072022 | 15 | 0.0 | 0.0 | 0.00 | 0.00 | 0.00 | 68 | 1011.7 | |
| 20260505070021 | 15 | 0.0 | 0.0 | 0.00 | 0.00 | 0.00 | 70 | 1011.4 | |
| 20260505064020 | 15 | 0.0 | 0.0 | 0.00 | 0.00 | 0.00 | 71 | 1011.3 | |
| 20260505062019 | 14 | 0.0 | 0.0 | 0.00 | 0.00 | 0.00 | 72 | 1011.2 | |
| 20260505060017 | 14 | 0.0 | 0.0 | 0.00 | 0.00 | 0.00 | 73 | 1011.0 | |
| 20260505054016 | 13 | 0.0 | 0.0 | 0.00 | 0.00 | 0.00 | 74 | 1010.8 | |
| 20260505052015 | 13 | 0.0 | 0.0 | 0.00 | 0.00 | 0.00 | 76 | 1010.7 | |
| 20260505040009 | 13 | 0.0 | 0.0 | 0.00 | 0.00 | 0.00 | 82 | 1011.6 | |
| 20260505034008 | 13 | 0.0 | 0.0 | 0.00 | 0.00 | 0.00 | 82 | 1012.0 | |
| 20260505032007 | 13 | 0.0 | 0.0 | 0.00 | 0.00 | 0.00 | 83 | 1012.2 | |
| 20260505030006 | 13 | 0.0 | 0.0 | 0.00 | 0.00 | 0.00 | 83 | 1012.2 | |
| 20260505024004 | 14 | 0.0 | 0.0 | 0.00 | 0.00 | 0.00 | 82 | 1012.4 | |
| 20260505022003 | 14 | 0.0 | 0.0 | 0.00 | 0.00 | 0.00 | 82 | 1012.3 | |
| 20260505020002 | 14 | 0.0 | 0.0 | 0.00 | 0.00 | 0.00 | 81 | 1012.6 |